"Pseudo-MPEC" for 5B1AE88

Created 2016 Jun 20 1:59:33 UT using Find_Orb

Astrometry:
     5B1AE88  C2005 01 16.30495 07 56 32.09 +01 10 48.0          17.8 Rd     703
     5B1AE88  C2005 01 16.31241 07 58 00.95 +00 55 00.3          17.9 Rd     703
     5B1AE88  C2005 01 16.31994 07 59 32.90 +00 38 34.5         x17.8 Rd     703
     5B1AE88  C2005 01 16.32743 08 01 03.63 +00 22 12.4          17.6 Rd     703
     5B1AE88  C2005 01 16.37216 08 10 47.08 -01 23 59.0          17.5 Rd     703
     5B1AE88  C2005 01 16.37245 08 10 50.69 -01 24 38.9          17.4 Rd     703
     5B1AE88  C2005 01 16.37274 08 10 55.17 -01 25 28.1          17.5 Rd     703
     5B1AE88  C2005 01 16.37303 08 10 58.97 -01 26 08.1          17.5 Rd     703

Station data:
(703) Catalina Sky Survey (N32.41712 W110.73264)  US/Arizona.   Observers E.
    J. Christensen, A. R. Gibbs, A. D. Grauer, R. E. Hill, J. A. Johnson, R. A.
    Kowalski, S. M. Larson, F. C. Shelly.  0.68 m Schmidt + CCD.

Orbital elements:  5B1AE88
   Perigee 2005 Jan 15.689909 +/- 0.0115 TT = 16:33:28 (JD 2453386.189909)
Epoch 2005 Jan 16.0 TT = JDT 2453386.5                        Find_Orb
M 113.933263 +/- 2.7                (J2000 equatorial)
n 367.418308278 +/- 4.93            Peri.  340.801175 +/- 0.36
a 41670.58947 +/- 372               Node   307.927333 +/- 0.14
e   0.78379127 +/- 0.00257          Incl.   22.936912 +/- 0.042
P1410.90m/0.980d           H 34.0   G  0.15   U 13.8  
q 9009.544878 +/- 181    Q 74331.63407 +/- 578
7 of 8 observations 2005 Jan. 16 (98.0 min); mean residual 1".898
Residuals in arcseconds: 
050116 703 .573+ .473-    050116 703 .419+ .301-    050116 703 2.63+ 2.49-    
050116 703 .964- .769+    050116 703 2.34+ 1.75-    050116 703 0.99- 1.75+    
050116 703(14.7+ 8.66-)   050116 703 4.01- 2.51+    

Ephemerides (geocentric):
Date (UTC) HH   RA              Dec         delta   r     elong  mag " sig PA
---- -- -- --  ------------   ------------  ------ ------ -----  --- ---- ---
2005 01 16 00  06 28 31.442   +12 13 24.59   67378 .98415 158.3 18.2  884 112
2005 01 16 01  06 41 53.052   +11 02 21.20   70285 .98417 160.5 18.3  627 113
2005 01 16 02  06 54 13.484   +09 54 14.23   72384 .98419 162.3 18.3  440 115
2005 01 16 03  07 05 54.740   +08 47 43.10   73714 .98421 163.5 18.3  302 117
2005 01 16 04  07 17 13.893   +07 41 37.16   74300 .98422 164.3 18.3  198 121
2005 01 16 05  07 28 25.543   +06 34 48.78   74151 .98422 164.5 18.2  122 126
2005 01 16 06  07 39 43.578   +05 26 07.12   73266 .98421 164.2 18.2   68 136
2005 01 16 07  07 51 22.736   +04 14 11.17   71627 .98420 163.3 18.2   35 159
2005 01 16 08  08 03 40.446   +02 57 20.43   69207 .98419 161.9 18.2   24  14
2005 01 16 09  08 16 59.505   +01 33 20.39   65957 .98416 159.8 18.1   21  22
2005 01 16 10  08 31 52.739   -00 01 02.74   61806 .98413 157.1 18.1   25 161
2005 01 16 11  08 49 12.267   -01 50 50.54   56650 .98409 153.5 18.0   62 128
2005 01 16 12  09 10 30.666   -04 04 36.27   50335 .98405 148.7 17.9  143 117
2005 01 16 13  09 38 58.560   -06 58 38.08   42620 .98398 142.0 17.7  301 113
2005 01 16 14  10 22 47.935   -11 09 02.45   33112 .98391 131.4 17.5  633 110
2005 01 16 15  11 54 10.422   -18 06 21.35   21171 .98381 109.5 17.1 1606 104
2005 01 16 16  18 37 45.853   -11 24 33.42    9090 .98371  20.6 23?? 4834  70
2005 01 16 17  02 06 44.790   +22 48 21.64   19661 .98379 100.6 17.3 1665  86
2005 01 16 18  03 58 18.802   +21 27 45.71   31914 .98390 125.2 17.6 1935  97
2005 01 16 19  04 49 54.649   +19 12 29.88   41659 .98398 136.7 17.8 1923 101
2005 01 16 20  05 22 24.268   +17 16 33.55   49551 .98405 143.8 18.0 1901 104
2005 01 16 21  05 46 08.567   +15 37 33.61   56008 .98410 149.0 18.1 1889 106
2005 01 16 22  06 05 03.797   +14 10 29.72   61284 .98415 152.9 18.2 1888 107
2005 01 16 23  06 21 02.627   +12 51 40.41   65541 .98419 156.1 18.3 1898 108
2005 01 17 00  06 35 07.323   +11 38 29.81   68887 .98422 158.6 18.3 1919 109
2005 01 17 01  06 47 56.291   +10 29 03.80   71397 .98424 160.7 18.3 1950 109
2005 01 17 02  06 59 55.531   +09 21 53.40   73120 .98426 162.3 18.3 1994 110
2005 01 17 03  07 11 24.281   +08 15 43.82   74088 .98427 163.5 18.3 2052 111
2005 01 17 04  07 22 38.173   +07 09 26.70   74318 .98428 164.1 18.3 2128 111
2005 01 17 05  07 33 51.268   +06 01 53.65   73814 .98428 164.3 18.2 2226 111